Weather History for Buffalo, WY

Change the Weather History Date:

Friday, December 7, 2012

  Actual Average Record
Temperature  
Mean Temperature 27 °F 26 °F  
Max Temperature 33 °F 36 °F 54 °F (2008)
Min Temperature 21 °F 16 °F -22 °F (2013)
Degree Days  
Heating Degree Days 38 39  
Month to date heating degree days 172 270  
Since 1 July heating degree days 1729 2104  
Cooling Degree Days 0 0  
Month to date cooling degree days 0 0  
Year to date cooling degree days 795 492  
Moisture  
Dew Point 21 °F    
Average Humidity 69    
Maximum Humidity 92    
Minimum Humidity 46    
Precipitation  
Precipitation 0.01 in 0.01 in 0.14 in (2003)
Month to date precipitation 0.01 0.13  
Year to date precipitation 8.83 13.18  
Sea Level Pressure  
Sea Level Pressure 29.88 in    
Wind  
Wind Speed 7 mph (South)    
Max Wind Speed 22 mph    
Max Gust Speed 29 mph    
Visibility 7 miles    
Events Snow    
T = Trace of Precipitation, MM = Missing Value Source: NWS Daily Summary

Daily Weather History Graph

Daily Weather History Graph

Search for Another Location

Airport:

Trip Planner

Search our weather history database for the weather conditions in past years. The results will help you decide how hot, cold, wet, or windy it might be!

Date:

Astronomy

Dec. 07, 2012 Rise Set
Actual Time 7:29 AM MST 4:27 PM MST
Civil Twilight 6:56 AM MST 5:00 PM MST
Nautical Twilight 6:20 AM MST 5:37 PM MST
Astronomical Twilight 5:44 AM MST 6:12 PM MST
Moon 12:39 AM MST (12/7) 12:37 PM MST (12/7)
Length of Visible Light 10h 03m
Length of Day
8h 57m
Last Quarter, 38% of the Moon is Illuminated
Dec 7
Last Quarter
Dec 13
New
Dec 19
First Quarter
Dec 28
Full
Jan 4
Last Quarter

Hourly Weather History & Observations

Time (MST) Temp. Windchill Dew Point Humidity Pressure Visibility Wind Dir Wind Speed Gust Speed Precip Events Conditions
12:24 AM 26.6 °F 15.7 °F 24.8 °F 93% 29.84 in 1.5 mi NW 12.7 mph - 0.00 in Snow Light Snow
12:38 AM 26.6 °F 17.5 °F 24.8 °F 93% 29.84 in 1.2 mi NW 9.2 mph - 0.00 in Snow Light Snow
12:53 AM 27.0 °F 17.3 °F 24.1 °F 89% 29.90 in 1.8 mi NNW 10.4 mph - 0.00 in Snow Light Snow
1:06 AM 26.6 °F 17.5 °F 24.8 °F 93% 29.84 in 1.0 mi NNW 9.2 mph - 0.01 in Snow Light Snow
1:18 AM 26.6 °F 17.5 °F 24.8 °F 93% 29.84 in 1.5 mi NW 9.2 mph - 0.01 in Snow Light Snow
1:37 AM 26.6 °F 17.5 °F 24.8 °F 93% 29.84 in 3.0 mi NNW 9.2 mph - 0.01 in Snow Light Snow
1:53 AM 27.0 °F 15.2 °F 24.1 °F 89% 29.89 in 3.0 mi North 15.0 mph 24.2 mph 0.01 in Snow Light Snow
1:59 AM 26.6 °F 15.2 °F 24.8 °F 93% 29.84 in 2.0 mi North 13.8 mph 24.2 mph 0.00 in Snow Light Snow
2:14 AM 26.6 °F 16.2 °F 24.8 °F 93% 29.83 in 4.0 mi North 11.5 mph 23.0 mph 0.00 in Snow Light Snow
2:48 AM 26.6 °F 13.8 °F 23.0 °F 86% 29.84 in 10.0 mi North 17.3 mph 23.0 mph 0.00 in   Overcast
2:53 AM 26.1 °F 14.5 °F 23.0 °F 88% 29.90 in 10.0 mi North 13.8 mph 24.2 mph 0.00 in   Overcast
3:53 AM 26.1 °F 15.6 °F 21.0 °F 81% 29.90 in 10.0 mi NNW 11.5 mph 21.9 mph N/A   Scattered Clouds
4:53 AM 28.0 °F 16.5 °F 18.0 °F 66% 29.90 in 10.0 mi NNW 15.0 mph 25.3 mph N/A   Overcast
5:53 AM 25.0 °F 13.1 °F 16.0 °F 69% 29.92 in 10.0 mi North 13.8 mph 24.2 mph N/A   Overcast
6:53 AM 23.0 °F - 14.0 °F 68% 29.95 in 10.0 mi Calm Calm - N/A   Clear
7:53 AM 21.0 °F 13.4 °F 18.0 °F 88% 29.96 in 10.0 mi SSE 5.8 mph - N/A   Clear
8:53 AM 25.0 °F 19.3 °F 19.9 °F 81% 29.97 in 10.0 mi SSE 4.6 mph - N/A   Partly Cloudy
9:53 AM 28.9 °F 22.8 °F 21.9 °F 75% 29.98 in 10.0 mi South 5.8 mph - N/A   Clear
10:53 AM 28.9 °F 22.8 °F 23.0 °F 78% 29.98 in 10.0 mi South 5.8 mph - N/A   Overcast
11:07 AM 28.4 °F 23.3 °F 23.0 °F 80% 29.89 in 1.8 mi South 4.6 mph - 0.00 in Snow Light Snow
11:22 AM 28.4 °F 22.2 °F 24.8 °F 86% 29.88 in 2.0 mi SSE 5.8 mph - 0.00 in Snow Light Snow
11:31 AM 30.2 °F 24.3 °F 26.6 °F 86% 29.88 in 4.0 mi South 5.8 mph - 0.00 in Snow Light Snow
11:50 AM 30.2 °F 25.4 °F 24.8 °F 80% 29.87 in 10.0 mi Variable 4.6 mph - 0.00 in   Overcast
11:53 AM 30.9 °F 26.2 °F 26.1 °F 82% 29.95 in 10.0 mi South 4.6 mph - 0.00 in   Overcast
12:16 PM 30.2 °F 26.7 °F 24.8 °F 80% 29.86 in 10.0 mi SE 3.5 mph - N/A   Overcast
12:53 PM 32.0 °F 27.5 °F 25.0 °F 75% 29.92 in 10.0 mi SE 4.6 mph - N/A   Overcast
1:53 PM 32.0 °F 24.2 °F 24.1 °F 73% 29.91 in 10.0 mi South 9.2 mph - N/A   Clear
2:53 PM 33.1 °F 25.5 °F 23.0 °F 66% 29.90 in 10.0 mi SE 9.2 mph - N/A   Scattered Clouds
3:53 PM 32.0 °F 27.5 °F 21.9 °F 66% 29.92 in 10.0 mi ESE 4.6 mph - N/A   Clear
4:53 PM 24.1 °F 16.0 °F 16.0 °F 71% 29.95 in 10.0 mi WSW 6.9 mph - N/A   Clear
7:53 PM 23.0 °F 15.8 °F 16.0 °F 74% 29.91 in 10.0 mi South 5.8 mph - N/A   Clear
8:53 PM 27.0 °F 20.5 °F 8.1 °F 45% 29.85 in 10.0 mi SSE 5.8 mph - N/A   Clear
9:53 PM 27.0 °F 18.7 °F 8.1 °F 45% 29.80 in 10.0 mi East 8.1 mph - N/A   Clear
10:53 PM 27.0 °F 18.7 °F 10.9 °F 51% 29.77 in 10.0 mi South 8.1 mph - N/A   Clear
11:53 PM 32.0 °F - 8.1 °F 37% 29.72 in 10.0 mi Calm Calm - N/A   Clear